Weather in Bronnitsa

Russia / Novgorod Oblast     58°27′15″N   31°39′39″E
temp.,
°C
wind,
m/s
gust,
m/s
humid.,
%
clouds,
%
prec.,
mm/h
press.,
hPa
HPBL,
m
3 march, wed
wed300:00−1wnw3109110 0.1 1018409
03:00−1wnw4109328 0.1 1019432
06:00−2w4109445 0.0 1017443
09:00−1wnw5108862 0.0 1017570
12:000w5984100 0.0 1015741
15:00+2w51075100 0.0 10131203
18:00+2w51277100 0.0 1010868
21:00+2w51390100 0.0 1007745
4 march, thu
thu400:00+1wnw51197100 1.2 1005646
03:00−1wnw31091100 2.8 1005625
06:00−2nw289099 0.0 1003366
09:00−3nnw2680100 0.0 1003379
12:00−1nnw246667 0.0 1002686
15:000nw246135 0.0 10031106
18:00−2nnw237885 0.2 1003110
21:00−4n369293 0.8 1004518
5 march, fri
fri500:00−5nnw378388 0.2 1005534
03:00−5nw378793 0.3 1007614
06:00−6nw368897 0.1 1008500
09:00−6nw368695 0.1 1009559
12:00−5nw3475100 0.1 1010770
15:00−4nw3471100 0.1 1012884
18:00−5nw3577100 0.1 1013675
21:00−6nnw2784100 0.1 1015470
6 march, sat
sat600:00−7nw249287 0.0 1016253
03:00−8wnw229680 0.1 101791
06:00−9wnw259452 0.0 1017201
09:00−8wsw258826 0.0 1016248
12:00−5sw47720 0.0 1015693
15:00−3sw6106127 0.0 10121340
18:00−3sw71463100 0.0 10061292
21:00−4sw81692100 0.9 10011314
7 march, sun
sun700:00−2sw81594100 1.9 9961131
03:00−1sw81695100 3.5 9901108
06:00−1sw81695100 1.4 9861282
09:00−6w81662100 3.0 9861953
12:00−6w8156896 0.1 9871671
15:00−5wnw9178297 0.7 9871635
18:00−6wnw91784100 0.3 9891297
21:00−7nw71385100 1.1 9921226